This is the latest recevied weather packets stored in our database for station/object N9BID. If no packets are shown the sender has not sent any weather packets the latest 1 day(s).
| Time | Temp. | Humidity | Pressure | Rain* | Wind** | Luminosity | Snow |
|---|---|---|---|---|---|---|---|
| 1778090888 | 5.56° C | 60% | 1006.4 hPa | 0 mm | - | 294 W/m² | - |
| 1778090280 | 5.56° C | 60% | 1006.4 hPa | 0 mm | - | 351 W/m² | - |
| 1778089977 | 6.11° C | 61% | 1006.4 hPa | 0 mm | - | 321 W/m² | - |
| 1778088766 | 6.11° C | 61% | 1006.8 hPa | 0 mm | - | 328 W/m² | - |
| 1778086343 | 5.56° C | 60% | 1006.6 hPa | 0 mm | - | 315 W/m² | - |
| 1778085737 | 5.56° C | 59% | 1006.7 hPa | 0 mm | - | 608 W/m² | - |
| 1778083311 | 5° C | 60% | 1006.7 hPa | 0 mm | - | 283 W/m² | - |
| 1778082706 | 5° C | 61% | 1007.1 hPa | 0 mm | - | 219 W/m² | - |
| 1778081265 | 4.44° C | 63% | 1006.5 hPa | 0 mm | - | 235 W/m² | - |
| 1778077330 | 3.89° C | 65% | 1006.3 hPa | 0 mm | - | 278 W/m² | - |
| 1778077028 | 3.89° C | 64% | 1006.3 hPa | 0 mm | - | 302 W/m² | - |
| 1778076726 | 3.89° C | 66% | 1006.4 hPa | 0 mm | - | 281 W/m² | - |
| 1778076120 | 3.33° C | 66% | 1006.2 hPa | 0 mm | - | 239 W/m² | - |
| 1778075817 | 3.89° C | 65% | 1006.4 hPa | 0 mm | - | 235 W/m² | - |
| 1778075513 | 3.89° C | 67% | 1006.2 hPa | 0 mm | - | 218 W/m² | - |
| 1778074603 | 2.78° C | 68% | 1006.1 hPa | 0 mm | - | 186 W/m² | - |
| 1778074300 | 2.78° C | 70% | 1006.2 hPa | 0 mm | - | 158 W/m² | - |
| 1778073694 | 2.78° C | 70% | 1006.3 hPa | 0 mm | - | 139 W/m² | - |
| 1778071273 | 2.78° C | 70% | 1005.8 hPa | 0 mm | - | 75 W/m² | - |
| 1778070669 | 1.67° C | 73% | 1005.8 hPa | 0 mm | - | 85 W/m² | - |
| 1778070365 | 1.67° C | 76% | 1005.5 hPa | 0 mm | - | 49 W/m² | - |
| 1778069155 | 1.11° C | 78% | 1005.7 hPa | 0 mm | - | 38 W/m² | - |
| 1778068248 | 0.56° C | 81% | 1005.5 hPa | 0 mm | - | 31 W/m² | - |
| 1778067945 | 0° C | 82% | 1005.2 hPa | 0 mm | - | 28 W/m² | - |
| 1778067341 | 0° C | 84% | 1005.1 hPa | 0 mm | - | 23 W/m² | - |
* Rain latest hour (hover to see other rain measurements)
** Current wind speed in m/s (hover to see current wind gust speed)